Time,TemperatureF,DewpointF,PressureIn,WindDirection,WindDirectionDegrees,WindSpeedMPH,WindSpeedGustMPH,Humidity,HourlyPrecipIn,Conditions,Clouds,dailyrainin,SolarRadiationWatts/m^2,SoftwareType,DateUTC
2013-08-29 00:00:00,59.8,39.0,29.82,West,267,4.0,4.0,46,0.00,,,0.00,0,WeatherCatV1.21B27,2013-08-29 07:00:00,
2013-08-29 00:05:00,59.8,39.0,29.82,South,182,2.0,14.0,46,0.00,,,0.00,0,WeatherCatV1.21B27,2013-08-29 07:05:00,
2013-08-29 00:10:00,59.6,38.8,29.82,WNW,283,2.0,5.0,46,0.00,,,0.00,0,WeatherCatV1.21B27,2013-08-29 07:10:00,
2013-08-29 00:15:00,59.6,38.8,29.82,SW,218,0.0,11.0,46,0.00,,,0.00,0,WeatherCatV1.21B27,2013-08-29 07:15:00,
2013-08-29 00:20:00,59.6,38.8,29.82,South,176,1.0,1.0,46,0.00,,,0.00,0,WeatherCatV1.21B27,2013-08-29 07:20:00,
2013-08-29 00:25:00,59.6,38.2,29.82,South,182,15.0,22.0,45,0.00,,,0.00,0,WeatherCatV1.21B27,2013-08-29 07:25:00,
2013-08-29 00:30:00,59.9,38.5,29.82,SE,144,0.0,14.0,45,0.00,,,0.00,0,WeatherCatV1.21B27,2013-08-29 07:30:00,
2013-08-29 00:35:00,59.9,38.5,29.82,SW,229,0.0,3.0,45,0.00,,,0.00,0,WeatherCatV1.21B27,2013-08-29 07:35:00,
2013-08-29 00:40:00,59.9,38.5,29.82,South,170,1.0,7.0,45,0.00,,,0.00,0,WeatherCatV1.21B27,2013-08-29 07:40:00,
2013-08-29 00:45:00,59.9,39.1,29.82,South,178,9.0,9.0,46,0.00,,,0.00,0,WeatherCatV1.21B27,2013-08-29 07:45:00,
2013-08-29 00:50:00,59.8,39.0,29.82,WSW,239,0.0,4.0,46,0.00,,,0.00,0,WeatherCatV1.21B27,2013-08-29 07:50:00,
2013-08-29 00:55:00,59.5,38.7,29.82,South,175,0.0,0.0,46,0.00,,,0.00,0,WeatherCatV1.21B27,2013-08-29 07:55:00,
2013-08-29 01:00:00,59.3,39.1,29.82,West,277,3.0,5.0,47,0.00,,,0.00,0,WeatherCatV1.21B27,2013-08-29 08:00:00,
2013-08-29 01:05:00,59.2,39.0,29.82,WSW,251,0.0,3.0,47,0.00,,,0.00,0,WeatherCatV1.21B27,2013-08-29 08:05:00,
2013-08-29 01:10:00,59.0,39.3,29.82,WNW,283,2.0,4.0,48,0.00,,,0.00,0,WeatherCatV1.21B27,2013-08-29 08:10:00,
2013-08-29 01:15:00,58.6,39.5,29.79,NW,326,0.0,6.0,49,0.00,,,0.00,0,WeatherCatV1.21B27,2013-08-29 08:15:00,
2013-08-29 01:20:00,58.4,39.3,29.79,WNW,288,2.0,9.0,49,0.00,,,0.00,0,WeatherCatV1.21B27,2013-08-29 08:20:00,
2013-08-29 01:25:00,58.3,38.7,29.79,West,274,0.0,2.0,48,0.00,,,0.00,0,WeatherCatV1.21B27,2013-08-29 08:25:00,
2013-08-29 01:30:00,58.3,38.7,29.80,South,186,3.0,10.0,48,0.00,,,0.00,0,WeatherCatV1.21B27,2013-08-29 08:30:00,
2013-08-29 01:35:00,58.3,38.7,29.80,WSW,245,0.0,0.0,48,0.00,,,0.00,0,WeatherCatV1.21B27,2013-08-29 08:35:00,
2013-08-29 01:40:00,58.3,39.2,29.80,WNW,283,2.0,6.0,49,0.00,,,0.00,0,WeatherCatV1.21B27,2013-08-29 08:40:00,
2013-08-29 01:45:00,58.3,39.2,29.80,West,272,7.0,7.0,49,0.00,,,0.00,0,WeatherCatV1.21B27,2013-08-29 08:45:00,
2013-08-29 01:50:00,58.1,38.5,29.80,NW,310,6.0,6.0,48,0.00,,,0.00,0,WeatherCatV1.21B27,2013-08-29 08:50:00,
2013-08-29 01:55:00,58.3,38.7,29.80,SW,216,1.0,4.0,48,0.00,,,0.00,0,WeatherCatV1.21B27,2013-08-29 08:55:00,
2013-08-29 02:00:00,58.1,39.0,29.80,WNW,283,7.0,7.0,49,0.00,,,0.00,0,WeatherCatV1.21B27,2013-08-29 09:00:00,
2013-08-29 02:05:00,58.0,39.5,29.80,West,276,2.0,3.0,50,0.00,,,0.00,0,WeatherCatV1.21B27,2013-08-29 09:05:00,
2013-08-29 02:10:00,58.0,39.0,29.80,South,189,2.0,9.0,49,0.00,,,0.00,0,WeatherCatV1.21B27,2013-08-29 09:10:00,
2013-08-29 02:15:00,58.0,39.5,29.82,West,275,3.0,5.0,50,0.00,,,0.00,0,WeatherCatV1.21B27,2013-08-29 09:15:00,
2013-08-29 02:20:00,57.8,39.3,29.82,WNW,283,2.0,6.0,50,0.00,,,0.00,0,WeatherCatV1.21B27,2013-08-29 09:20:00,
2013-08-29 02:25:00,58.0,39.0,29.82,South,181,2.0,5.0,49,0.00,,,0.00,0,WeatherCatV1.21B27,2013-08-29 09:25:00,
2013-08-29 02:30:00,57.8,38.8,29.82,West,274,4.0,5.0,49,0.00,,,0.00,0,WeatherCatV1.21B27,2013-08-29 09:30:00,
2013-08-29 02:35:00,57.8,39.3,29.82,NNW,345,2.0,7.0,50,0.00,,,0.00,0,WeatherCatV1.21B27,2013-08-29 09:35:00,
2013-08-29 02:40:00,57.8,39.3,29.82,ENE,66,0.0,11.0,50,0.00,,,0.00,0,WeatherCatV1.21B27,2013-08-29 09:40:00,
2013-08-29 02:45:00,57.8,39.3,29.82,ENE,70,0.0,4.0,50,0.00,,,0.00,0,WeatherCatV1.21B27,2013-08-29 09:45:00,
2013-08-29 02:50:00,57.8,39.3,29.82,North,1,5.0,5.0,50,0.00,,,0.00,0,WeatherCatV1.21B27,2013-08-29 09:50:00,
2013-08-29 02:55:00,57.6,39.1,29.82,North,0,0.0,0.0,50,0.00,,,0.00,0,WeatherCatV1.21B27,2013-08-29 09:55:00,
2013-08-29 03:00:00,57.5,39.5,29.82,North,0,0.0,0.0,51,0.00,,,0.00,0,WeatherCatV1.21B27,2013-08-29 10:00:00,
2013-08-29 03:05:00,57.2,39.7,29.82,North,0,0.0,0.0,52,0.00,,,0.00,0,WeatherCatV1.21B27,2013-08-29 10:05:00,
2013-08-29 03:10:00,57.0,39.5,29.82,North,359,4.0,4.0,52,0.00,,,0.00,0,WeatherCatV1.21B27,2013-08-29 10:10:00,
2013-08-29 03:15:00,56.7,39.3,29.83,WNW,293,1.0,5.0,52,0.00,,,0.00,0,WeatherCatV1.21B27,2013-08-29 10:15:00,
2013-08-29 03:20:00,56.7,39.8,29.83,WNW,302,0.0,3.0,53,0.00,,,0.00,0,WeatherCatV1.21B27,2013-08-29 10:20:00,
2013-08-29 03:25:00,56.6,39.7,29.83,NNW,343,5.0,6.0,53,0.00,,,0.00,0,WeatherCatV1.21B27,2013-08-29 10:25:00,
2013-08-29 03:30:00,56.5,40.1,29.83,NNW,342,0.0,4.0,54,0.00,,,0.00,0,WeatherCatV1.21B27,2013-08-29 10:30:00,
2013-08-29 03:35:00,56.3,39.9,29.83,NNW,335,1.0,5.0,54,0.00,,,0.00,0,WeatherCatV1.21B27,2013-08-29 10:35:00,
2013-08-29 03:40:00,56.2,39.8,29.83,WNW,288,2.0,9.0,54,0.00,,,0.00,0,WeatherCatV1.21B27,2013-08-29 10:40:00,
2013-08-29 03:45:00,56.2,39.8,29.84,WNW,293,0.0,0.0,54,0.00,,,0.00,0,WeatherCatV1.21B27,2013-08-29 10:45:00,
2013-08-29 03:50:00,56.0,39.6,29.84,WNW,301,0.0,0.0,54,0.00,,,0.00,0,WeatherCatV1.21B27,2013-08-29 10:50:00,
2013-08-29 03:55:00,56.0,39.6,29.84,WNW,301,4.0,5.0,54,0.00,,,0.00,0,WeatherCatV1.21B27,2013-08-29 10:55:00,
2013-08-29 04:00:00,56.0,39.6,29.84,WNW,300,0.0,4.0,54,0.00,,,0.00,0,WeatherCatV1.21B27,2013-08-29 11:00:00,
2013-08-29 04:05:00,55.9,40.0,29.84,WNW,300,3.0,3.0,55,0.00,,,0.00,0,WeatherCatV1.21B27,2013-08-29 11:05:00,
2013-08-29 04:10:00,55.9,40.0,29.84,WNW,299,0.0,3.0,55,0.00,,,0.00,0,WeatherCatV1.21B27,2013-08-29 11:10:00,
2013-08-29 04:15:00,55.6,39.7,29.84,WNW,293,3.0,6.0,55,0.00,,,0.00,0,WeatherCatV1.21B27,2013-08-29 11:15:00,
2013-08-29 04:20:00,55.6,39.7,29.84,WNW,288,5.0,6.0,55,0.00,,,0.00,0,WeatherCatV1.21B27,2013-08-29 11:20:00,
2013-08-29 04:25:00,55.6,39.7,29.84,WNW,288,4.0,5.0,55,0.00,,,0.00,0,WeatherCatV1.21B27,2013-08-29 11:25:00,
2013-08-29 04:30:00,55.6,39.2,29.85,WNW,288,3.0,6.0,54,0.00,,,0.00,0,WeatherCatV1.21B27,2013-08-29 11:30:00,
2013-08-29 04:35:00,55.7,38.8,29.85,WNW,293,2.0,4.0,53,0.00,,,0.00,0,WeatherCatV1.21B27,2013-08-29 11:35:00,
2013-08-29 04:40:00,55.7,38.8,29.85,WNW,293,2.0,5.0,53,0.00,,,0.00,0,WeatherCatV1.21B27,2013-08-29 11:40:00,
2013-08-29 04:45:00,55.7,38.8,29.86,WNW,293,0.0,0.0,53,0.00,,,0.00,0,WeatherCatV1.21B27,2013-08-29 11:45:00,
2013-08-29 04:50:00,55.7,38.8,29.86,WNW,293,0.0,3.0,53,0.00,,,0.00,0,WeatherCatV1.21B27,2013-08-29 11:50:00,
2013-08-29 04:55:00,55.7,38.8,29.86,WNW,293,0.0,0.0,53,0.00,,,0.00,0,WeatherCatV1.21B27,2013-08-29 11:55:00,
2013-08-29 05:00:00,55.7,38.3,29.85,WNW,293,0.0,3.0,52,0.00,,,0.00,0,WeatherCatV1.21B27,2013-08-29 12:00:00,
2013-08-29 05:05:00,55.6,37.8,29.85,WNW,293,0.0,0.0,51,0.00,,,0.00,0,WeatherCatV1.21B27,2013-08-29 12:05:00,
2013-08-29 05:10:00,55.6,37.8,29.85,WNW,293,0.0,0.0,51,0.00,,,0.00,0,WeatherCatV1.21B27,2013-08-29 12:10:00,
2013-08-29 05:15:00,55.3,37.5,29.86,WNW,293,0.0,0.0,51,0.00,,,0.00,0,WeatherCatV1.21B27,2013-08-29 12:15:00,
2013-08-29 05:20:00,55.3,38.0,29.86,WNW,293,0.0,2.0,52,0.00,,,0.00,0,WeatherCatV1.21B27,2013-08-29 12:20:00,
2013-08-29 05:25:00,55.3,38.0,29.86,WNW,293,0.0,0.0,52,0.00,,,0.00,0,WeatherCatV1.21B27,2013-08-29 12:25:00,
2013-08-29 05:30:00,55.1,36.8,29.87,WNW,293,0.0,0.0,50,0.00,,,0.00,0,WeatherCatV1.21B27,2013-08-29 12:30:00,
2013-08-29 05:35:00,55.0,36.2,29.87,WNW,293,0.0,0.0,49,0.00,,,0.00,0,WeatherCatV1.21B27,2013-08-29 12:35:00,
2013-08-29 05:40:00,55.0,36.2,29.87,WNW,293,0.0,0.0,49,0.00,,,0.00,0,WeatherCatV1.21B27,2013-08-29 12:40:00,
2013-08-29 05:45:00,55.0,36.2,29.87,WNW,293,0.0,0.0,49,0.00,,,0.00,0,WeatherCatV1.21B27,2013-08-29 12:45:00,
2013-08-29 05:50:00,54.8,36.0,29.87,WSW,249,0.0,1.0,49,0.00,,,0.00,0,WeatherCatV1.21B27,2013-08-29 12:50:00,
2013-08-29 05:55:00,54.8,36.0,29.87,South,191,0.0,4.0,49,0.00,,,0.00,0,WeatherCatV1.21B27,2013-08-29 12:55:00,
2013-08-29 06:00:00,54.8,35.0,29.88,South,191,0.0,0.0,47,0.00,,,0.00,0,WeatherCatV1.21B27,2013-08-29 13:00:00,
2013-08-29 06:05:00,54.8,35.0,29.88,South,191,0.0,0.0,47,0.00,,,0.00,0,WeatherCatV1.21B27,2013-08-29 13:05:00,
2013-08-29 06:10:00,54.8,35.5,29.88,South,191,3.0,4.0,48,0.00,,,0.00,0,WeatherCatV1.21B27,2013-08-29 13:10:00,
2013-08-29 06:15:00,54.8,35.5,29.90,South,189,3.0,4.0,48,0.00,,,0.00,0,WeatherCatV1.21B27,2013-08-29 13:15:00,
2013-08-29 06:20:00,54.8,35.0,29.90,South,179,0.0,1.0,47,0.00,,,0.00,0,WeatherCatV1.21B27,2013-08-29 13:20:00,
2013-08-29 06:25:00,54.8,33.3,29.90,SSE,168,3.0,5.0,44,0.00,,,0.00,0,WeatherCatV1.21B27,2013-08-29 13:25:00,
2013-08-29 06:30:00,54.8,35.0,29.90,SE,146,0.0,0.0,47,0.00,,,0.00,5,WeatherCatV1.21B27,2013-08-29 13:30:00,
2013-08-29 06:35:00,55.0,34.6,29.90,SE,145,0.0,0.0,46,0.00,,,0.00,7,WeatherCatV1.21B27,2013-08-29 13:35:00,
2013-08-29 06:40:00,55.0,34.6,29.90,SE,145,0.0,1.0,46,0.00,,,0.00,11,WeatherCatV1.21B27,2013-08-29 13:40:00,
2013-08-29 06:45:00,55.3,34.9,29.91,NE,49,2.0,3.0,46,0.00,,,0.00,14,WeatherCatV1.21B27,2013-08-29 13:45:00,
2013-08-29 06:50:00,55.3,34.9,29.91,North,6,0.0,1.0,46,0.00,,,0.00,18,WeatherCatV1.21B27,2013-08-29 13:50:00,
2013-08-29 06:55:00,55.1,35.2,29.91,North,6,0.0,0.0,47,0.00,,,0.00,25,WeatherCatV1.21B27,2013-08-29 13:55:00,
2013-08-29 07:00:00,55.1,35.2,29.92,North,6,0.0,0.0,47,0.00,,,0.00,33,WeatherCatV1.21B27,2013-08-29 14:00:00,
2013-08-29 07:05:00,55.1,35.2,29.92,North,359,1.0,5.0,47,0.00,,,0.00,44,WeatherCatV1.21B27,2013-08-29 14:05:00,
2013-08-29 07:10:00,55.3,35.4,29.92,North,359,0.0,0.0,47,0.00,,,0.00,54,WeatherCatV1.21B27,2013-08-29 14:10:00,
2013-08-29 07:15:00,55.3,35.4,29.95,North,359,0.0,3.0,47,0.00,,,0.00,67,WeatherCatV1.21B27,2013-08-29 14:15:00,
2013-08-29 07:20:00,55.4,35.5,29.95,NW,318,5.0,5.0,47,0.00,,,0.00,83,WeatherCatV1.21B27,2013-08-29 14:20:00,
2013-08-29 07:25:00,55.7,35.2,29.95,NNW,328,4.0,4.0,46,0.00,,,0.00,98,WeatherCatV1.21B27,2013-08-29 14:25:00,
2013-08-29 07:30:00,56.0,35.5,29.93,NNW,335,0.0,4.0,46,0.00,,,0.00,111,WeatherCatV1.21B27,2013-08-29 14:30:00,
2013-08-29 07:35:00,56.2,35.7,29.93,NW,314,0.0,3.0,46,0.00,,,0.00,127,WeatherCatV1.21B27,2013-08-29 14:35:00,
2013-08-29 07:40:00,56.3,35.8,29.93,NNW,341,1.0,3.0,46,0.00,,,0.00,139,WeatherCatV1.21B27,2013-08-29 14:40:00,
2013-08-29 07:45:00,56.5,36.0,29.94,NW,305,5.0,6.0,46,0.00,,,0.00,151,WeatherCatV1.21B27,2013-08-29 14:45:00,
2013-08-29 07:50:00,56.7,35.6,29.94,NNW,330,4.0,10.0,45,0.00,,,0.00,171,WeatherCatV1.21B27,2013-08-29 14:50:00,
2013-08-29 07:55:00,57.0,35.9,29.94,NW,310,4.0,9.0,45,0.00,,,0.00,188,WeatherCatV1.21B27,2013-08-29 14:55:00,
2013-08-29 08:00:00,57.3,35.6,29.95,NNW,327,5.0,9.0,44,0.00,,,0.00,193,WeatherCatV1.21B27,2013-08-29 15:00:00,
2013-08-29 08:05:00,57.3,35.6,29.95,WNW,293,6.0,11.0,44,0.00,,,0.00,213,WeatherCatV1.21B27,2013-08-29 15:05:00,
2013-08-29 08:10:00,57.6,35.3,29.95,West,276,6.0,10.0,43,0.00,,,0.00,230,WeatherCatV1.21B27,2013-08-29 15:10:00,
2013-08-29 08:15:00,57.8,35.5,29.95,North,352,5.0,7.0,43,0.00,,,0.00,244,WeatherCatV1.21B27,2013-08-29 15:15:00,
2013-08-29 08:20:00,58.0,35.6,29.95,NNW,334,5.0,6.0,43,0.00,,,0.00,264,WeatherCatV1.21B27,2013-08-29 15:20:00,
2013-08-29 08:25:00,58.1,35.7,29.95,WNW,300,4.0,9.0,43,0.00,,,0.00,279,WeatherCatV1.21B27,2013-08-29 15:25:00,
2013-08-29 08:30:00,58.1,35.7,29.96,WNW,288,3.0,10.0,43,0.00,,,0.00,302,WeatherCatV1.21B27,2013-08-29 15:30:00,
2013-08-29 08:35:00,58.3,35.9,29.96,WNW,301,3.0,7.0,43,0.00,,,0.00,315,WeatherCatV1.21B27,2013-08-29 15:35:00,
2013-08-29 08:40:00,58.4,35.4,29.96,NW,322,4.0,11.0,42,0.00,,,0.00,323,WeatherCatV1.21B27,2013-08-29 15:40:00,
2013-08-29 08:45:00,58.6,36.2,29.95,WNW,299,3.0,6.0,43,0.00,,,0.00,346,WeatherCatV1.21B27,2013-08-29 15:45:00,
2013-08-29 08:50:00,58.7,35.1,29.95,NW,305,2.0,10.0,41,0.00,,,0.00,357,WeatherCatV1.21B27,2013-08-29 15:50:00,
2013-08-29 08:55:00,58.9,35.2,29.95,NW,312,10.0,12.0,41,0.00,,,0.00,369,WeatherCatV1.21B27,2013-08-29 15:55:00,
2013-08-29 09:00:00,59.0,35.3,29.94,WNW,288,6.0,9.0,41,0.00,,,0.00,383,WeatherCatV1.21B27,2013-08-29 16:00:00,
2013-08-29 09:05:00,59.2,35.5,29.94,West,278,10.0,11.0,41,0.00,,,0.00,404,WeatherCatV1.21B27,2013-08-29 16:05:00,
2013-08-29 09:10:00,59.3,35.6,29.94,WNW,298,9.0,14.0,41,0.00,,,0.00,411,WeatherCatV1.21B27,2013-08-29 16:10:00,
2013-08-29 09:15:00,59.5,35.8,29.93,WNW,299,3.0,10.0,41,0.00,,,0.00,434,WeatherCatV1.21B27,2013-08-29 16:15:00,
2013-08-29 09:20:00,59.6,35.2,29.93,WSW,251,1.0,4.0,40,0.00,,,0.00,450,WeatherCatV1.21B27,2013-08-29 16:20:00,
2013-08-29 09:25:00,59.9,36.1,29.93,WNW,288,5.0,7.0,41,0.00,,,0.00,459,WeatherCatV1.21B27,2013-08-29 16:25:00,
2013-08-29 09:30:00,60.1,35.7,29.94,NW,310,3.0,7.0,40,0.00,,,0.00,473,WeatherCatV1.21B27,2013-08-29 16:30:00,
2013-08-29 09:35:00,60.2,35.2,29.94,West,272,4.0,10.0,39,0.00,,,0.00,499,WeatherCatV1.21B27,2013-08-29 16:35:00,
2013-08-29 09:40:00,60.4,35.3,29.94,WNW,293,7.0,11.0,39,0.00,,,0.00,510,WeatherCatV1.21B27,2013-08-29 16:40:00,
2013-08-29 09:45:00,60.5,36.1,29.93,WNW,293,6.0,11.0,40,0.00,,,0.00,512,WeatherCatV1.21B27,2013-08-29 16:45:00,
2013-08-29 09:50:00,60.7,36.2,29.93,WNW,293,2.0,8.0,40,0.00,,,0.00,531,WeatherCatV1.21B27,2013-08-29 16:50:00,
2013-08-29 09:55:00,61.0,37.1,29.93,WSW,249,1.0,4.0,41,0.00,,,0.00,541,WeatherCatV1.21B27,2013-08-29 16:55:00,
2013-08-29 10:00:00,61.5,35.7,29.93,WNW,298,2.0,7.0,38,0.00,,,0.00,563,WeatherCatV1.21B27,2013-08-29 17:00:00,
2013-08-29 10:05:00,61.8,35.9,29.93,WNW,297,3.0,7.0,38,0.00,,,0.00,564,WeatherCatV1.21B27,2013-08-29 17:05:00,
2013-08-29 10:10:00,62.0,36.1,29.93,WNW,283,2.0,7.0,38,0.00,,,0.00,582,WeatherCatV1.21B27,2013-08-29 17:10:00,
2013-08-29 10:15:00,62.3,35.7,29.93,WNW,288,8.0,10.0,37,0.00,,,0.00,594,WeatherCatV1.21B27,2013-08-29 17:15:00,
2013-08-29 10:20:00,62.4,35.8,29.93,West,259,2.0,6.0,37,0.00,,,0.00,599,WeatherCatV1.21B27,2013-08-29 17:20:00,
2013-08-29 10:25:00,62.7,35.4,29.93,WNW,297,4.0,4.0,36,0.00,,,0.00,589,WeatherCatV1.21B27,2013-08-29 17:25:00,
2013-08-29 10:30:00,63.1,35.7,29.94,West,260,6.0,14.0,36,0.00,,,0.00,628,WeatherCatV1.21B27,2013-08-29 17:30:00,
2013-08-29 10:35:00,63.4,36.0,29.94,WNW,283,5.0,7.0,36,0.00,,,0.00,649,WeatherCatV1.21B27,2013-08-29 17:35:00,
2013-08-29 10:41:00,63.9,35.0,29.94,NW,320,5.0,9.0,34,0.00,,,0.00,659,WeatherCatV1.21B27,2013-08-29 17:41:00,
2013-08-29 10:46:00,64.2,34.5,29.93,WSW,238,13.0,13.0,33,0.00,,,0.00,670,WeatherCatV1.21B27,2013-08-29 17:46:00,
2013-08-29 10:51:00,64.3,33.8,29.93,WNW,283,5.0,11.0,32,0.00,,,0.00,661,WeatherCatV1.21B27,2013-08-29 17:51:00,
2013-08-29 10:56:00,64.5,34.8,29.93,West,278,6.0,8.0,33,0.00,,,0.00,680,WeatherCatV1.21B27,2013-08-29 17:56:00,
2013-08-29 11:01:00,64.5,33.2,29.93,WNW,283,4.0,11.0,31,0.00,,,0.00,694,WeatherCatV1.21B27,2013-08-29 18:01:00,
2013-08-29 11:06:00,64.8,33.5,29.93,West,278,5.0,12.0,31,0.00,,,0.00,707,WeatherCatV1.21B27,2013-08-29 18:06:00,
2013-08-29 11:11:00,65.0,33.6,29.93,NNW,336,5.0,12.0,31,0.00,,,0.00,724,WeatherCatV1.21B27,2013-08-29 18:11:00,
2013-08-29 11:16:00,65.2,32.1,29.93,WNW,293,13.0,14.0,29,0.00,,,0.00,724,WeatherCatV1.21B27,2013-08-29 18:16:00,
2013-08-29 11:21:00,65.0,32.0,29.93,WNW,288,12.0,16.0,29,0.00,,,0.00,738,WeatherCatV1.21B27,2013-08-29 18:21:00,
2013-08-29 11:26:00,65.2,32.1,29.93,WNW,283,6.0,8.0,29,0.00,,,0.00,745,WeatherCatV1.21B27,2013-08-29 18:26:00,
2013-08-29 11:31:00,65.3,31.4,29.93,West,270,11.0,13.0,28,0.00,,,0.00,749,WeatherCatV1.21B27,2013-08-29 18:31:00,
2013-08-29 11:36:00,65.8,31.8,29.93,WNW,288,9.0,16.0,28,0.00,,,0.00,763,WeatherCatV1.21B27,2013-08-29 18:36:00,
2013-08-29 11:41:00,66.1,32.0,29.93,WNW,303,4.0,13.0,28,0.00,,,0.00,782,WeatherCatV1.21B27,2013-08-29 18:41:00,
2013-08-29 11:46:00,66.4,31.4,29.92,NW,314,8.0,11.0,27,0.00,,,0.00,780,WeatherCatV1.21B27,2013-08-29 18:46:00,
2013-08-29 11:51:00,66.6,32.5,29.92,WNW,301,2.0,14.0,28,0.00,,,0.00,773,WeatherCatV1.21B27,2013-08-29 18:51:00,
2013-08-29 11:56:00,66.6,31.6,29.92,WNW,297,4.0,14.0,27,0.00,,,0.00,795,WeatherCatV1.21B27,2013-08-29 18:56:00,
2013-08-29 12:01:00,66.9,32.7,29.92,WNW,293,12.0,13.0,28,0.00,,,0.00,795,WeatherCatV1.21B27,2013-08-29 19:01:00,
2013-08-29 12:06:00,67.1,31.1,29.92,WNW,283,10.0,14.0,26,0.00,,,0.00,800,WeatherCatV1.21B27,2013-08-29 19:06:00,
2013-08-29 12:11:00,67.3,31.2,29.92,West,268,3.0,9.0,26,0.00,,,0.00,807,WeatherCatV1.21B27,2013-08-29 19:11:00,
2013-08-29 12:16:00,67.9,32.7,29.93,SSW,207,0.0,4.0,27,0.00,,,0.00,810,WeatherCatV1.21B27,2013-08-29 19:16:00,
2013-08-29 12:21:00,68.9,30.6,29.93,WNW,283,6.0,6.0,24,0.00,,,0.00,809,WeatherCatV1.21B27,2013-08-29 19:21:00,
2013-08-29 12:26:00,69.3,31.0,29.93,WNW,288,6.0,13.0,24,0.00,,,0.00,803,WeatherCatV1.21B27,2013-08-29 19:26:00,
2013-08-29 12:31:00,69.1,31.8,29.91,NW,306,13.0,15.0,25,0.00,,,0.00,803,WeatherCatV1.21B27,2013-08-29 19:31:00,
2013-08-29 12:36:00,68.8,31.5,29.91,WSW,238,10.0,14.0,25,0.00,,,0.00,782,WeatherCatV1.21B27,2013-08-29 19:36:00,
2013-08-29 12:41:00,68.9,31.6,29.91,South,187,3.0,9.0,25,0.00,,,0.00,772,WeatherCatV1.21B27,2013-08-29 19:41:00,
2013-08-29 12:46:00,69.3,32.0,29.91,West,279,5.0,7.0,25,0.00,,,0.00,800,WeatherCatV1.21B27,2013-08-29 19:46:00,
2013-08-29 12:51:00,69.8,31.4,29.91,WNW,283,11.0,18.0,24,0.00,,,0.00,789,WeatherCatV1.21B27,2013-08-29 19:51:00,
2013-08-29 12:56:00,69.4,30.0,29.91,WSW,246,5.0,17.0,23,0.00,,,0.00,805,WeatherCatV1.21B27,2013-08-29 19:56:00,
2013-08-29 13:01:00,69.4,30.0,29.91,WNW,293,4.0,13.0,23,0.00,,,0.00,793,WeatherCatV1.21B27,2013-08-29 20:01:00,
2013-08-29 13:06:00,69.8,30.3,29.91,SSW,205,4.0,5.0,23,0.00,,,0.00,788,WeatherCatV1.21B27,2013-08-29 20:06:00,
2013-08-29 13:11:00,70.3,29.6,29.91,WNW,293,7.0,15.0,22,0.00,,,0.00,779,WeatherCatV1.21B27,2013-08-29 20:11:00,
2013-08-29 13:16:00,70.1,29.5,29.91,West,269,5.0,17.0,22,0.00,,,0.00,758,WeatherCatV1.21B27,2013-08-29 20:16:00,
2013-08-29 13:21:00,70.1,29.5,29.91,NW,310,18.0,18.0,22,0.00,,,0.00,784,WeatherCatV1.21B27,2013-08-29 20:21:00,
2013-08-29 13:26:00,69.8,30.3,29.91,WNW,297,6.0,13.0,23,0.00,,,0.00,737,WeatherCatV1.21B27,2013-08-29 20:26:00,
2013-08-29 13:31:00,69.6,31.2,29.91,NW,324,3.0,5.0,24,0.00,,,0.00,780,WeatherCatV1.21B27,2013-08-29 20:31:00,
2013-08-29 13:36:00,69.8,32.4,29.91,WNW,283,10.0,15.0,25,0.00,,,0.00,765,WeatherCatV1.21B27,2013-08-29 20:36:00,
2013-08-29 13:41:00,69.4,32.0,29.91,West,279,9.0,12.0,25,0.00,,,0.00,754,WeatherCatV1.21B27,2013-08-29 20:41:00,
2013-08-29 13:46:00,69.4,32.0,29.92,WNW,297,13.0,15.0,25,0.00,,,0.00,768,WeatherCatV1.21B27,2013-08-29 20:46:00,
2013-08-29 13:51:00,69.1,30.8,29.92,WNW,283,13.0,15.0,24,0.00,,,0.00,772,WeatherCatV1.21B27,2013-08-29 20:51:00,
2013-08-29 13:56:00,69.1,31.8,29.92,WSW,253,5.0,11.0,25,0.00,,,0.00,747,WeatherCatV1.21B27,2013-08-29 20:56:00,
2013-08-29 14:01:00,68.9,30.6,29.91,WNW,283,12.0,13.0,24,0.00,,,0.00,729,WeatherCatV1.21B27,2013-08-29 21:01:00,
2013-08-29 14:06:00,69.1,32.8,29.91,WNW,297,11.0,13.0,26,0.00,,,0.00,717,WeatherCatV1.21B27,2013-08-29 21:06:00,
2013-08-29 14:11:00,69.3,32.0,29.91,NW,307,6.0,14.0,25,0.00,,,0.00,687,WeatherCatV1.21B27,2013-08-29 21:11:00,
2013-08-29 14:16:00,69.4,31.0,29.91,WNW,293,17.0,24.0,24,0.00,,,0.00,721,WeatherCatV1.21B27,2013-08-29 21:16:00,
2013-08-29 14:21:00,69.3,32.0,29.91,WSW,242,6.0,17.0,25,0.00,,,0.00,675,WeatherCatV1.21B27,2013-08-29 21:21:00,
2013-08-29 14:26:00,69.6,31.2,29.91,WSW,255,7.0,11.0,24,0.00,,,0.00,717,WeatherCatV1.21B27,2013-08-29 21:26:00,
2013-08-29 14:31:00,69.9,32.5,29.89,WNW,293,14.0,19.0,25,0.00,,,0.00,708,WeatherCatV1.21B27,2013-08-29 21:31:00,
2013-08-29 14:36:00,70.1,31.6,29.89,WNW,288,6.0,18.0,24,0.00,,,0.00,694,WeatherCatV1.21B27,2013-08-29 21:36:00,
2013-08-29 14:41:00,70.3,31.8,29.89,WNW,293,10.0,16.0,24,0.00,,,0.00,700,WeatherCatV1.21B27,2013-08-29 21:41:00,
2013-08-29 14:46:00,70.3,32.8,29.89,WNW,301,14.0,15.0,25,0.00,,,0.00,626,WeatherCatV1.21B27,2013-08-29 21:46:00,
2013-08-29 14:51:00,70.4,32.9,29.89,WNW,283,2.0,14.0,25,0.00,,,0.00,621,WeatherCatV1.21B27,2013-08-29 21:51:00,
2013-08-29 14:56:00,70.6,32.0,29.89,WNW,297,13.0,18.0,24,0.00,,,0.00,652,WeatherCatV1.21B27,2013-08-29 21:56:00,
2013-08-29 15:01:00,70.3,33.8,29.89,West,278,9.0,15.0,26,0.00,,,0.00,629,WeatherCatV1.21B27,2013-08-29 22:01:00,
2013-08-29 15:06:00,69.9,33.5,29.89,WNW,299,10.0,22.0,26,0.00,,,0.00,626,WeatherCatV1.21B27,2013-08-29 22:06:00,
2013-08-29 15:11:00,69.8,34.3,29.89,NW,317,10.0,19.0,27,0.00,,,0.00,622,WeatherCatV1.21B27,2013-08-29 22:11:00,
2013-08-29 15:16:00,70.1,33.6,29.91,WNW,288,10.0,22.0,26,0.00,,,0.00,612,WeatherCatV1.21B27,2013-08-29 22:16:00,
2013-08-29 15:21:00,69.9,33.5,29.91,WNW,283,6.0,20.0,26,0.00,,,0.00,605,WeatherCatV1.21B27,2013-08-29 22:21:00,
2013-08-29 15:26:00,69.9,35.3,29.91,West,261,5.0,14.0,28,0.00,,,0.00,570,WeatherCatV1.21B27,2013-08-29 22:26:00,
2013-08-29 15:31:00,70.1,33.6,29.90,West,272,11.0,18.0,26,0.00,,,0.00,566,WeatherCatV1.21B27,2013-08-29 22:31:00,
2013-08-29 15:36:00,70.1,33.6,29.90,WSW,251,5.0,17.0,26,0.00,,,0.00,571,WeatherCatV1.21B27,2013-08-29 22:36:00,
2013-08-29 15:41:00,70.4,34.8,29.90,West,272,3.0,12.0,27,0.00,,,0.00,568,WeatherCatV1.21B27,2013-08-29 22:41:00,
2013-08-29 15:46:00,71.3,32.6,29.90,WSW,247,13.0,15.0,24,0.00,,,0.00,552,WeatherCatV1.21B27,2013-08-29 22:46:00,
2013-08-29 15:51:00,71.1,33.5,29.90,WNW,293,10.0,19.0,25,0.00,,,0.00,534,WeatherCatV1.21B27,2013-08-29 22:51:00,
2013-08-29 15:56:00,70.9,33.3,29.90,SW,236,4.0,18.0,25,0.00,,,0.00,541,WeatherCatV1.21B27,2013-08-29 22:56:00,
2013-08-29 16:01:00,70.6,34.0,29.90,WNW,301,9.0,18.0,26,0.00,,,0.00,534,WeatherCatV1.21B27,2013-08-29 23:01:00,
2013-08-29 16:06:00,70.1,32.6,29.90,WNW,297,6.0,20.0,25,0.00,,,0.00,536,WeatherCatV1.21B27,2013-08-29 23:06:00,
2013-08-29 16:11:00,69.8,33.4,29.90,WNW,288,7.0,17.0,26,0.00,,,0.00,519,WeatherCatV1.21B27,2013-08-29 23:11:00,
2013-08-29 16:16:00,70.1,32.6,29.90,WNW,288,5.0,20.0,25,0.00,,,0.00,527,WeatherCatV1.21B27,2013-08-29 23:16:00,
2013-08-29 16:21:00,70.6,33.1,29.90,WNW,288,6.0,14.0,25,0.00,,,0.00,512,WeatherCatV1.21B27,2013-08-29 23:21:00,
2013-08-29 16:26:00,70.6,33.1,29.90,WNW,297,6.0,18.0,25,0.00,,,0.00,496,WeatherCatV1.21B27,2013-08-29 23:26:00,
2013-08-29 16:31:00,70.3,33.8,29.90,NW,312,5.0,20.0,26,0.00,,,0.00,459,WeatherCatV1.21B27,2013-08-29 23:31:00,
2013-08-29 16:36:00,70.3,32.8,29.90,NW,321,11.0,18.0,25,0.00,,,0.00,438,WeatherCatV1.21B27,2013-08-29 23:36:00,
2013-08-29 16:41:00,70.3,32.8,29.90,SW,217,4.0,11.0,25,0.00,,,0.00,438,WeatherCatV1.21B27,2013-08-29 23:41:00,
2013-08-29 16:46:00,70.1,32.6,29.90,WNW,293,8.0,17.0,25,0.00,,,0.00,413,WeatherCatV1.21B27,2013-08-29 23:46:00,
2013-08-29 16:51:00,70.3,32.8,29.90,West,278,10.0,18.0,25,0.00,,,0.00,434,WeatherCatV1.21B27,2013-08-29 23:51:00,
2013-08-29 16:56:00,70.3,33.8,29.90,West,266,5.0,11.0,26,0.00,,,0.00,417,WeatherCatV1.21B27,2013-08-29 23:56:00,
2013-08-29 17:01:00,70.8,34.2,29.91,WNW,301,9.0,9.0,26,0.00,,,0.00,396,WeatherCatV1.21B27,2013-08-30 00:01:00,
2013-08-29 17:06:00,70.6,34.0,29.91,WNW,283,10.0,12.0,26,0.00,,,0.00,397,WeatherCatV1.21B27,2013-08-30 00:06:00,
2013-08-29 17:11:00,70.4,34.8,29.91,West,264,10.0,12.0,27,0.00,,,0.00,394,WeatherCatV1.21B27,2013-08-30 00:11:00,
2013-08-29 17:16:00,70.4,34.8,29.92,WNW,302,6.0,11.0,27,0.00,,,0.00,383,WeatherCatV1.21B27,2013-08-30 00:16:00,
2013-08-29 17:21:00,70.1,33.6,29.92,WNW,297,15.0,15.0,26,0.00,,,0.00,376,WeatherCatV1.21B27,2013-08-30 00:21:00,
2013-08-29 17:26:00,69.8,34.3,29.92,WNW,297,13.0,15.0,27,0.00,,,0.00,369,WeatherCatV1.21B27,2013-08-30 00:26:00,
2013-08-29 17:31:00,69.4,34.9,29.92,NW,306,11.0,17.0,28,0.00,,,0.00,336,WeatherCatV1.21B27,2013-08-30 00:31:00,
2013-08-29 17:36:00,69.3,33.9,29.92,West,266,6.0,13.0,27,0.00,,,0.00,304,WeatherCatV1.21B27,2013-08-30 00:36:00,
2013-08-29 17:41:00,69.1,34.6,29.92,WNW,288,11.0,13.0,28,0.00,,,0.00,297,WeatherCatV1.21B27,2013-08-30 00:41:00,
2013-08-29 17:46:00,68.9,34.5,29.92,SSE,162,5.0,11.0,28,0.00,,,0.00,271,WeatherCatV1.21B27,2013-08-30 00:46:00,
2013-08-29 17:51:00,68.9,34.5,29.92,West,270,9.0,15.0,28,0.00,,,0.00,250,WeatherCatV1.21B27,2013-08-30 00:51:00,
2013-08-29 17:56:00,68.8,34.4,29.92,NW,314,11.0,17.0,28,0.00,,,0.00,251,WeatherCatV1.21B27,2013-08-30 00:56:00,
2013-08-29 18:01:00,68.6,35.1,29.92,West,259,9.0,15.0,29,0.00,,,0.00,230,WeatherCatV1.21B27,2013-08-30 01:01:00,
2013-08-29 18:06:00,68.3,35.7,29.92,WNW,293,5.0,11.0,30,0.00,,,0.00,214,WeatherCatV1.21B27,2013-08-30 01:06:00,
2013-08-29 18:11:00,68.1,36.3,29.92,WNW,293,2.0,5.0,31,0.00,,,0.00,202,WeatherCatV1.21B27,2013-08-30 01:11:00,
2013-08-29 18:16:00,67.9,36.1,29.93,NW,311,5.0,10.0,31,0.00,,,0.00,193,WeatherCatV1.21B27,2013-08-30 01:16:00,
2013-08-29 18:21:00,67.8,36.1,29.93,WNW,301,5.0,12.0,31,0.00,,,0.00,181,WeatherCatV1.21B27,2013-08-30 01:21:00,
2013-08-29 18:26:00,67.4,35.7,29.93,NW,305,10.0,14.0,31,0.00,,,0.00,174,WeatherCatV1.21B27,2013-08-30 01:26:00,
2013-08-29 18:31:00,67.3,35.6,29.93,WNW,301,8.0,15.0,31,0.00,,,0.00,156,WeatherCatV1.21B27,2013-08-30 01:31:00,
2013-08-29 18:36:00,66.9,36.1,29.93,WNW,297,10.0,12.0,32,0.00,,,0.00,141,WeatherCatV1.21B27,2013-08-30 01:36:00,
2013-08-29 18:41:00,66.8,36.0,29.93,NW,307,6.0,12.0,32,0.00,,,0.00,116,WeatherCatV1.21B27,2013-08-30 01:41:00,
2013-08-29 18:46:00,66.4,36.4,29.93,North,349,5.0,10.0,33,0.00,,,0.00,83,WeatherCatV1.21B27,2013-08-30 01:46:00,
2013-08-29 18:51:00,66.1,36.9,29.93,WNW,301,5.0,10.0,34,0.00,,,0.00,88,WeatherCatV1.21B27,2013-08-30 01:51:00,
2013-08-29 18:56:00,66.0,36.8,29.93,WNW,297,11.0,11.0,34,0.00,,,0.00,79,WeatherCatV1.21B27,2013-08-30 01:56:00,
2013-08-29 19:01:00,65.6,37.2,29.94,WNW,299,8.0,9.0,35,0.00,,,0.00,70,WeatherCatV1.21B27,2013-08-30 02:01:00,
2013-08-29 19:06:00,65.5,37.1,29.94,WNW,299,9.0,11.0,35,0.00,,,0.00,60,WeatherCatV1.21B27,2013-08-30 02:06:00,
2013-08-29 19:11:00,65.2,36.8,29.94,NW,312,13.0,13.0,35,0.00,,,0.00,51,WeatherCatV1.21B27,2013-08-30 02:11:00,
2013-08-29 19:16:00,65.0,37.4,29.92,WNW,298,7.0,11.0,36,0.00,,,0.00,42,WeatherCatV1.21B27,2013-08-30 02:16:00,
2013-08-29 19:21:00,64.7,37.1,29.92,West,266,2.0,9.0,36,0.00,,,0.00,30,WeatherCatV1.21B27,2013-08-30 02:21:00,
2013-08-29 19:26:00,64.5,37.7,29.92,NW,310,7.0,9.0,37,0.00,,,0.00,19,WeatherCatV1.21B27,2013-08-30 02:26:00,
2013-08-29 19:31:00,64.2,37.4,29.95,NW,310,2.0,9.0,37,0.00,,,0.00,11,WeatherCatV1.21B27,2013-08-30 02:31:00,
2013-08-29 19:36:00,63.7,36.9,29.95,NW,326,4.0,4.0,37,0.00,,,0.00,5,WeatherCatV1.21B27,2013-08-30 02:36:00,
2013-08-29 19:41:00,63.2,37.2,29.95,NNW,345,1.0,6.0,38,0.00,,,0.00,0,WeatherCatV1.21B27,2013-08-30 02:41:00,
2013-08-29 19:46:00,62.9,36.9,29.95,NW,310,4.0,6.0,38,0.00,,,0.00,0,WeatherCatV1.21B27,2013-08-30 02:46:00,
2013-08-29 19:51:00,62.7,37.4,29.95,NW,323,1.0,6.0,39,0.00,,,0.00,0,WeatherCatV1.21B27,2013-08-30 02:51:00,
2013-08-29 19:56:00,62.3,37.7,29.95,NW,322,2.0,6.0,40,0.00,,,0.00,0,WeatherCatV1.21B27,2013-08-30 02:56:00,
2013-08-29 20:01:00,61.8,37.2,29.97,NNW,347,3.0,7.0,40,0.00,,,0.00,0,WeatherCatV1.21B27,2013-08-30 03:01:00,
2013-08-29 20:06:00,61.6,37.7,29.97,NW,312,3.0,7.0,41,0.00,,,0.00,0,WeatherCatV1.21B27,2013-08-30 03:06:00,
2013-08-29 20:11:00,61.3,37.4,29.97,NW,310,3.0,8.0,41,0.00,,,0.00,0,WeatherCatV1.21B27,2013-08-30 03:11:00,
2013-08-29 20:16:00,61.2,37.3,29.96,WNW,293,5.0,10.0,41,0.00,,,0.00,0,WeatherCatV1.21B27,2013-08-30 03:16:00,
2013-08-29 20:21:00,61.2,37.3,29.96,WNW,293,3.0,7.0,41,0.00,,,0.00,0,WeatherCatV1.21B27,2013-08-30 03:21:00,
2013-08-29 20:26:00,61.0,37.1,29.96,NNW,344,2.0,7.0,41,0.00,,,0.00,0,WeatherCatV1.21B27,2013-08-30 03:26:00,
2013-08-29 20:31:00,60.9,37.0,29.96,WNW,288,4.0,5.0,41,0.00,,,0.00,0,WeatherCatV1.21B27,2013-08-30 03:31:00,
2013-08-29 20:36:00,60.7,37.5,29.96,NW,308,1.0,6.0,42,0.00,,,0.00,0,WeatherCatV1.21B27,2013-08-30 03:36:00,
2013-08-29 20:41:00,60.4,37.2,29.96,NNW,331,0.0,0.0,42,0.00,,,0.00,0,WeatherCatV1.21B27,2013-08-30 03:41:00,
2013-08-29 20:46:00,60.2,37.6,29.98,NNW,332,1.0,3.0,43,0.00,,,0.00,0,WeatherCatV1.21B27,2013-08-30 03:46:00,
2013-08-29 20:51:00,59.9,37.3,29.98,North,353,5.0,5.0,43,0.00,,,0.00,0,WeatherCatV1.21B27,2013-08-30 03:51:00,
2013-08-29 20:56:00,60.2,37.0,29.98,North,357,2.0,5.0,42,0.00,,,0.00,0,WeatherCatV1.21B27,2013-08-30 03:56:00,
2013-08-29 21:01:00,60.5,36.7,29.98,North,5,5.0,5.0,41,0.00,,,0.00,0,WeatherCatV1.21B27,2013-08-30 04:01:00,
2013-08-29 21:02:00,60.7,36.2,29.98,North,4,5.0,6.0,40,0.00,,,0.00,0,WeatherCatV1.21B27,2013-08-30 04:02:00,
2013-08-29 21:05:00,60.7,36.2,29.98,NNW,327,1.0,4.0,40,0.00,,,0.00,0,WeatherCatV1.21B27,2013-08-30 04:05:00,
2013-08-29 21:08:00,60.7,36.2,29.98,NNW,327,0.0,2.0,40,0.00,,,0.00,0,WeatherCatV1.21B27,2013-08-30 04:08:00,
2013-08-29 21:13:00,60.4,36.6,29.98,NNW,328,0.0,0.0,41,0.00,,,0.00,0,WeatherCatV1.21B27,2013-08-30 04:13:00,
2013-08-29 21:15:00,60.2,36.4,29.96,NNW,328,0.0,1.0,41,0.00,,,0.00,0,WeatherCatV1.21B27,2013-08-30 04:15:00,
2013-08-29 21:20:00,59.9,35.5,29.96,NNW,327,0.0,3.0,40,0.00,,,0.00,0,WeatherCatV1.21B27,2013-08-30 04:20:00,
2013-08-29 21:25:00,59.8,36.7,29.96,NNW,327,0.0,3.0,42,0.00,,,0.00,0,WeatherCatV1.21B27,2013-08-30 04:25:00,
2013-08-29 21:30:00,59.5,35.8,29.96,NNW,328,0.0,0.0,41,0.00,,,0.00,0,WeatherCatV1.21B27,2013-08-30 04:30:00,
2013-08-29 21:35:00,59.3,36.2,29.96,NW,326,2.0,4.0,42,0.00,,,0.00,0,WeatherCatV1.21B27,2013-08-30 04:35:00,
2013-08-29 21:40:00,59.0,34.1,29.96,NW,326,1.0,4.0,39,0.00,,,0.00,0,WeatherCatV1.21B27,2013-08-30 04:40:00,
2013-08-29 21:45:00,59.0,34.1,29.98,NW,326,0.0,2.0,39,0.00,,,0.00,0,WeatherCatV1.21B27,2013-08-30 04:45:00,
2013-08-29 21:50:00,59.0,34.1,29.98,NW,326,0.0,0.0,39,0.00,,,0.00,0,WeatherCatV1.21B27,2013-08-30 04:50:00,
2013-08-29 21:56:00,59.0,35.3,29.98,NW,323,0.0,1.0,41,0.00,,,0.00,0,WeatherCatV1.21B27,2013-08-30 04:56:00,
2013-08-29 22:01:00,58.7,34.4,29.98,NW,323,0.0,0.0,40,0.00,,,0.00,0,WeatherCatV1.21B27,2013-08-30 05:01:00,
2013-08-29 22:06:00,58.7,35.1,29.98,NW,323,0.0,1.0,41,0.00,,,0.00,0,WeatherCatV1.21B27,2013-08-30 05:06:00,
2013-08-29 22:11:00,58.7,35.1,29.98,NW,323,0.0,0.0,41,0.00,,,0.00,0,WeatherCatV1.21B27,2013-08-30 05:11:00,
2013-08-29 22:16:00,58.7,35.1,29.95,NW,323,0.0,1.0,41,0.00,,,0.00,0,WeatherCatV1.21B27,2013-08-30 05:16:00,
2013-08-29 22:21:00,58.7,35.1,29.95,NW,323,0.0,0.0,41,0.00,,,0.00,0,WeatherCatV1.21B27,2013-08-30 05:21:00,
2013-08-29 22:26:00,58.7,35.1,29.95,NW,323,0.0,2.0,41,0.00,,,0.00,0,WeatherCatV1.21B27,2013-08-30 05:26:00,
2013-08-29 22:31:00,58.6,35.0,29.96,NW,322,0.0,0.0,41,0.00,,,0.00,0,WeatherCatV1.21B27,2013-08-30 05:31:00,
2013-08-29 22:36:00,58.6,35.0,29.96,NW,322,0.0,3.0,41,0.00,,,0.00,0,WeatherCatV1.21B27,2013-08-30 05:36:00,
2013-08-29 22:41:00,58.6,34.3,29.96,NW,322,0.0,3.0,40,0.00,,,0.00,0,WeatherCatV1.21B27,2013-08-30 05:41:00,
2013-08-29 22:46:00,58.7,34.4,29.95,NW,322,2.0,3.0,40,0.00,,,0.00,0,WeatherCatV1.21B27,2013-08-30 05:46:00,
2013-08-29 22:51:00,58.7,34.4,29.95,NW,322,0.0,4.0,40,0.00,,,0.00,0,WeatherCatV1.21B27,2013-08-30 05:51:00,
2013-08-29 22:56:00,58.9,34.6,29.95,NW,322,0.0,3.0,40,0.00,,,0.00,0,WeatherCatV1.21B27,2013-08-30 05:56:00,
2013-08-29 23:01:00,58.9,34.0,29.96,NW,322,1.0,3.0,39,0.00,,,0.00,0,WeatherCatV1.21B27,2013-08-30 06:01:00,
2013-08-29 23:06:00,59.0,32.8,29.96,NW,322,0.0,4.0,37,0.00,,,0.00,0,WeatherCatV1.21B27,2013-08-30 06:06:00,
2013-08-29 23:11:00,59.0,32.8,29.96,SW,229,1.0,4.0,37,0.00,,,0.00,0,WeatherCatV1.21B27,2013-08-30 06:11:00,
2013-08-29 23:16:00,58.9,32.0,29.94,NW,312,0.0,4.0,36,0.00,,,0.00,0,WeatherCatV1.21B27,2013-08-30 06:16:00,
2013-08-29 23:21:00,58.7,31.8,29.94,WNW,293,3.0,3.0,36,0.00,,,0.00,0,WeatherCatV1.21B27,2013-08-30 06:21:00,
2013-08-29 23:26:00,58.6,32.4,29.94,WNW,293,0.0,0.0,37,0.00,,,0.00,0,WeatherCatV1.21B27,2013-08-30 06:26:00,
2013-08-29 23:31:00,58.4,32.9,29.94,WNW,293,0.0,0.0,38,0.00,,,0.00,0,WeatherCatV1.21B27,2013-08-30 06:31:00,
2013-08-29 23:36:00,58.4,32.9,29.94,WNW,293,0.0,0.0,38,0.00,,,0.00,0,WeatherCatV1.21B27,2013-08-30 06:36:00,
2013-08-29 23:41:00,58.3,32.1,29.94,WNW,293,0.0,0.0,37,0.00,,,0.00,0,WeatherCatV1.21B27,2013-08-30 06:41:00,
2013-08-29 23:46:00,58.6,29.6,29.96,SW,235,5.0,5.0,33,0.00,,,0.00,0,WeatherCatV1.21B27,2013-08-30 06:46:00,
2013-08-29 23:51:00,58.6,29.6,29.96,SW,236,0.0,0.0,33,0.00,,,0.00,0,WeatherCatV1.21B27,2013-08-30 06:51:00,
2013-08-29 23:56:00,58.7,29.7,29.96,WSW,237,0.0,2.0,33,0.00,,,0.00,0,WeatherCatV1.21B27,2013-08-30 06:56:00,